Flag for Finland Weather past 2 weeks in Pori, Finland

Now
37 °F

Fog.


Feels Like: 37 °F
Forecast: 34 / 52 °F
Wind: 2 mph from Southeast

Location: Pori Airport

Current Time: Apr 27, 2015 at 12:10:19 AM

Latest Report: Apr 26, 2015 at 11:20 PM


Visibility: 0 mi

Pressure: 29.56 "Hg

Humidity: 100%

Dew point: 37 °F

Location of PoriLocation

Historic Weather in Pori — Graph

°F

Pori temperature yesterday

Maximum temperature yesterday: 50 °F (at 6:20 PM)
Minimum temperature yesterday: 37 °F (at 10:50 PM)
Average temperature yesterday: 44 °F

Past Weeks' High & Low Weather Summary

 TemperatureHumidityPressure
High55 °F (Apr 25, 4:20 PM)100% (Apr 12, 3:20 AM)30.15 "Hg (Apr 12, 3:20 AM)
Low27 °F (Apr 25, 4:20 AM)24% (Apr 25, 12:20 PM)29.27 "Hg (Apr 16, 2:50 AM)
Average41 °F73%29.71 "Hg
* Reported Apr 11 10:20 PM — Apr 26 10:50 PM, Pori, Weather by CustomWeather, © 2015

Note: Actual official high and low records may vary slightly from our data, if they occured in-between our weather recording intervals... More about our weather records

Advertising

Pori weather history for previous 24 hours

 ConditionsComfort  
Time TempWeatherWind HumidityBarometerVisibility
10:50 PM
Sun, Apr 26
37 °FFog.1 mph100%29.56 "Hg0 mi
10:20 PM39 °FFog.3 mph100%29.56 "Hg0 mi
9:50 PM41 °FFog.1 mph93%29.56 "Hg0 mi
9:20 PM45 °FQuite cool.2 mph93%29.56 "Hg4 mi
8:50 PM48 °FSunny.5 mph87%29.56 "Hg10 mi
8:20 PM50 °FPassing clouds.6 mph82%29.53 "HgN/A
7:50 PM50 °FPartly sunny.7 mph88%29.53 "HgN/A
7:20 PM50 °FPartly sunny.6 mph88%29.53 "HgN/A
6:50 PM50 °FLight rain. Low clouds.7 mph88%29.53 "Hg6 mi
6:20 PM50 °FPartly sunny.2 mph94%29.53 "Hg4 mi
5:50 PM48 °FFog.5 mph100%29.53 "Hg3 mi
5:20 PM48 °FFog.5 mph94%29.53 "Hg2 mi
4:50 PM46 °FFog.5 mph100%29.53 "Hg2 mi
4:20 PM46 °FFog.7 mph100%29.53 "Hg2 mi
3:50 PM46 °FFog.8 mph100%29.53 "Hg1 mi
3:20 PM46 °FDrizzle. Low clouds.7 mph93%29.53 "Hg3 mi
2:50 PM45 °FLow clouds.7 mph100%29.53 "HgN/A
2:20 PM46 °FLow clouds.8 mph93%29.53 "HgN/A
1:50 PM45 °FLow clouds.9 mph93%29.50 "HgN/A
1:20 PM45 °FLow clouds.9 mph93%29.50 "HgN/A
12:50 PM45 °FLow clouds.10 mph93%29.50 "HgN/A
12:20 PM43 °FLow clouds.9 mph93%29.50 "HgN/A
11:50 AM43 °FLow clouds.10 mph93%29.50 "HgN/A
11:20 AM43 °FLight rain. Low clouds.9 mph93%29.50 "HgN/A
10:50 AM41 °FLight rain. Low clouds.10 mph93%29.50 "HgN/A
10:20 AM41 °FLight rain. Low clouds.9 mph93%29.50 "HgN/A
9:50 AM41 °FLight rain. Low clouds.12 mph93%29.50 "HgN/A
9:20 AM41 °FLight rain. Low clouds.13 mph93%29.50 "HgN/A
8:50 AM39 °FLight rain. Overcast.12 mph93%29.53 "HgN/A
8:20 AM41 °FLight rain. Overcast.13 mph87%29.53 "HgN/A
7:50 AM41 °FLight rain. Overcast.9 mph87%29.53 "HgN/A
7:20 AM41 °FLight rain. Overcast.10 mph87%29.53 "HgN/A
6:50 AM41 °FLight rain. Overcast.10 mph81%29.53 "HgN/A
6:20 AM41 °FLight rain. Overcast.9 mph87%29.53 "HgN/A
5:50 AM41 °FLight rain. Overcast.12 mph87%29.56 "HgN/A
5:20 AM41 °FLight rain. Overcast.10 mph87%29.56 "HgN/A
4:50 AM41 °FLight rain. Overcast.9 mph87%29.59 "HgN/A
4:20 AM41 °FLight rain. Overcast.10 mph87%29.59 "HgN/A
3:50 AM41 °FLight rain. Mostly cloudy.12 mph81%29.59 "HgN/A
3:20 AM43 °FLight rain. Overcast.14 mph76%29.62 "HgN/A
2:50 AM41 °FLight rain. Mostly cloudy.13 mph81%29.62 "HgN/A
2:20 AM41 °FLight rain. Mostly cloudy.13 mph81%29.65 "HgN/A
1:50 AM43 °FLight rain. Mostly cloudy.15 mph76%29.65 "HgN/A
1:20 AM45 °FLight rain. Mostly cloudy.15 mph61%29.65 "HgN/A
12:20 AM46 °FOvercast.14 mph53%29.68 "HgN/A
Weather by CustomWeather, © 2015

See weather overviewHow to use our weather pages